Date String (YYYY-MM-DD hh:mm:ss) UTC,Instrument flags,Ambient pressure (hPa),Sample flow (lpm),Bypass flow (lpm),Sample temperature (°C),Ambient temperature (°C),ASC tube jacket temperature (°C),LED temperature (°C),Box temperature (°C),Sample RH (%),Span deviation,Mass concentration (μg/m³),Mass concentration (μg/m³),Mass concentration (μg/m³)
DateTimeUTC,F1_M11,P_M11,Q1_M11,Q2_M11,T1_M11,T2_M11,T3_M11,T4_M11,T5_M11,U1_M11,ZSPAN_M11,X0_M11,X2_M11,X1_M11
2022-09-01 14:00:00,,0829.8,4.99,0.00,30.7,29.6,00.0,39.4,32.5,18.7,0000.0,0014.98,0005.93,0004.95
2022-09-01 14:01:00,,0829.8,5.00,0.00,30.7,29.5,00.0,39.4,32.5,18.5,0000.0,0014.50,0005.92,0004.96
2022-09-01 14:02:00,,0829.8,5.00,0.00,30.7,28.4,00.0,39.4,32.4,18.7,0000.0,0014.05,0005.90,0004.96
2022-09-01 14:03:00,,0829.7,5.00,0.00,30.6,27.2,00.0,39.4,32.3,18.9,0000.0,0013.79,0005.89,0004.96
2022-09-01 14:04:00,,0829.7,5.00,0.00,30.6,27.2,00.0,39.3,32.3,18.9,0000.0,0013.73,0005.94,0004.97
2022-09-01 14:05:00,,0829.8,4.99,0.00,30.5,27.5,00.0,39.3,32.1,19.2,0000.0,0013.81,0005.90,0004.97
2022-09-01 14:06:00,,0829.8,5.01,0.00,30.4,27.8,00.0,39.2,32.0,19.5,0000.0,0013.53,0005.86,0004.96
2022-09-01 14:07:00,,0829.7,4.99,0.00,30.4,28.1,00.0,39.2,32.0,19.7,0000.0,0011.85,0005.84,0004.96
2022-09-01 14:08:00,,0829.8,5.00,0.00,30.4,28.3,00.0,39.2,32.0,19.8,0000.0,0011.61,0005.87,0004.97
2022-09-01 14:09:00,,0829.8,5.00,0.00,30.4,28.5,00.0,39.2,32.0,19.9,0000.0,0011.70,0005.87,0004.96
2022-09-01 14:10:00,,0829.8,5.00,0.00,30.4,28.7,00.0,39.2,32.1,20.2,0000.0,0011.72,0005.83,0004.94
2022-09-01 14:11:00,,0829.7,5.00,0.00,30.3,28.8,00.0,39.2,32.1,20.0,0000.0,0011.96,0005.84,0004.94
2022-09-01 14:12:00,,0829.7,5.00,0.00,30.3,28.9,00.0,39.2,32.1,20.0,0000.0,0012.13,0005.84,0004.94
2022-09-01 14:13:00,,0829.7,5.00,0.00,30.4,29.0,00.0,39.2,32.1,20.1,0000.0,0012.15,0005.84,0004.93
2022-09-01 14:14:00,,0829.8,5.00,0.00,30.4,29.0,00.0,39.2,32.1,19.5,0000.0,0013.02,0005.82,0004.92
2022-09-01 14:15:00,,0829.8,5.01,0.00,30.4,29.1,00.0,39.2,32.1,19.4,0000.0,0013.46,0005.82,0004.92
2022-09-01 14:16:00,,0829.8,4.99,0.00,30.4,29.1,00.0,39.2,32.2,19.3,0000.0,0012.35,0005.80,0004.91
2022-09-01 14:17:00,,0829.8,5.00,0.00,30.4,29.2,00.0,39.2,32.2,19.5,0000.0,0012.50,0005.82,0004.90
2022-09-01 14:18:00,,0829.7,5.01,0.00,30.4,29.3,00.0,39.2,32.2,19.4,0000.0,0012.73,0005.79,0004.89
2022-09-01 14:19:00,,0829.7,4.98,0.00,30.4,29.3,00.0,39.2,32.2,19.2,0000.0,0012.84,0005.82,0004.89
2022-09-01 14:20:00,,0829.6,5.01,0.00,30.5,29.3,00.0,39.2,32.3,19.2,0000.0,0012.81,0005.80,0004.87
2022-09-01 14:21:00,,0829.7,5.00,0.00,30.5,29.4,00.0,39.2,32.3,19.4,0000.0,0013.01,0005.80,0004.87
2022-09-01 14:22:00,,0829.6,5.00,0.00,30.5,29.4,00.0,39.2,32.3,20.0,0000.0,0013.12,0005.77,0004.85
2022-09-01 14:23:00,,0829.7,5.01,0.00,30.5,29.4,00.0,39.3,32.3,19.9,0000.0,0013.37,0005.74,0004.84
2022-09-01 14:24:00,,0829.6,4.98,0.00,30.5,29.4,00.0,39.3,32.4,19.3,0000.0,0013.39,0005.74,0004.82
2022-09-01 14:25:00,,0829.6,4.99,0.00,30.6,29.0,00.0,39.3,32.4,19.8,0000.0,0012.95,0005.77,0004.81
2022-09-01 14:26:00,,0829.7,5.00,0.00,30.5,27.6,00.0,39.3,32.2,19.7,0000.0,0012.58,0005.75,0004.79
2022-09-01 14:27:00,,0829.6,5.01,0.00,30.5,27.1,00.0,39.2,32.2,19.5,0000.0,0013.68,0005.78,0004.79
2022-09-01 14:28:00,,0829.6,4.99,0.00,30.4,27.3,00.0,39.2,32.1,19.9,0000.0,0013.69,0005.79,0004.79
2022-09-01 14:29:00,,0829.9,5.00,0.00,30.3,27.7,00.0,39.1,32.0,19.9,0000.0,0013.75,0005.80,0004.78
2022-09-01 14:30:00,,0829.6,5.01,0.00,30.3,28.0,00.0,39.1,32.0,19.9,0000.0,0014.10,0005.75,0004.75
2022-09-01 14:31:00,,0829.6,5.00,0.00,30.3,28.2,00.0,39.1,32.0,20.0,0000.0,0014.10,0005.73,0004.75
2022-09-01 14:32:00,,0829.8,5.01,0.00,30.3,28.4,00.0,39.1,32.0,19.6,0000.0,0014.02,0005.74,0004.74
2022-09-01 14:33:00,,0829.8,5.00,0.00,30.3,28.6,00.0,39.1,32.0,20.4,0000.0,0015.68,0005.75,0004.75
2022-09-01 14:34:00,,0829.7,5.00,0.00,30.3,28.7,00.0,39.1,32.0,20.9,0000.0,0016.34,0005.79,0004.74
2022-09-01 14:35:00,,0829.6,5.00,0.00,30.3,28.9,00.0,39.1,32.0,20.9,0000.0,0017.12,0005.84,0004.75
2022-09-01 14:36:00,,0829.7,5.01,0.00,30.3,29.0,00.0,39.1,32.1,20.6,0000.0,0017.49,0005.89,0004.76
2022-09-01 14:37:00,,0829.7,4.98,0.00,30.3,29.0,00.0,39.1,32.1,20.9,0000.0,0016.99,0005.93,0004.75
2022-09-01 14:38:00,,0829.7,5.00,0.00,30.3,29.1,00.0,39.1,32.1,20.9,0000.0,0016.13,0005.92,0004.75
2022-09-01 14:39:00,,0829.7,5.00,0.00,30.3,29.2,00.0,39.1,32.1,20.8,0000.0,0015.97,0005.92,0004.76
2022-09-01 14:40:00,,0829.6,4.99,0.00,30.4,29.2,00.0,39.1,32.2,20.6,0000.0,0015.92,0005.94,0004.78
2022-09-01 14:41:00,,0829.8,5.00,0.00,30.4,29.3,00.0,39.1,32.2,20.8,0000.0,0015.67,0005.95,0004.78
2022-09-01 14:42:00,,0829.6,5.00,0.00,30.4,29.3,00.0,39.1,32.2,20.5,0000.0,0015.72,0005.98,0004.78
2022-09-01 14:43:00,,0829.6,5.00,0.00,30.4,29.3,00.0,39.2,32.3,20.5,0000.0,0015.94,0006.00,0004.79
2022-09-01 14:44:00,,0829.6,5.00,0.00,30.5,28.5,00.0,39.2,32.2,20.1,0000.0,0013.97,0006.01,0004.80
2022-09-01 14:45:00,,0829.6,5.00,0.00,30.4,27.3,00.0,39.1,32.0,20.1,0000.0,0012.93,0006.02,0004.81
2022-09-01 14:46:00,,0829.6,5.00,0.00,30.4,27.2,00.0,39.1,32.1,20.5,0000.0,0012.46,0005.93,0004.81
2022-09-01 14:47:00,,0829.6,5.00,0.00,30.3,27.5,00.0,39.0,32.0,20.8,0000.0,0012.15,0005.85,0004.81
2022-09-01 14:48:00,,0829.6,5.00,0.00,30.2,27.8,00.0,39.0,31.9,20.6,0000.0,0011.84,0005.84,0004.81
2022-09-01 14:49:00,,0829.6,5.00,0.00,30.2,28.1,00.0,39.0,31.9,20.5,0000.0,0011.83,0005.80,0004.80
2022-09-01 14:50:00,,0829.6,5.00,0.00,30.2,28.3,00.0,39.0,31.9,20.5,0000.0,0011.90,0005.77,0004.79
2022-09-01 14:51:00,,0829.6,5.00,0.00,30.2,28.5,00.0,39.0,32.0,20.4,0000.0,0011.76,0005.77,0004.78
2022-09-01 14:52:00,,0829.6,5.00,0.00,30.2,28.7,00.0,39.0,32.0,20.5,0000.0,0013.19,0005.75,0004.80
2022-09-01 14:53:00,,0829.6,5.00,0.00,30.2,28.8,00.0,39.0,32.0,20.6,0000.0,0013.41,0005.74,0004.80
2022-09-01 14:54:00,,0829.6,4.99,0.00,30.2,28.9,00.0,39.0,32.0,20.6,0000.0,0013.09,0005.77,0004.81
2022-09-01 14:55:00,,0829.6,5.01,0.00,30.2,28.9,00.0,39.0,32.0,20.4,0000.0,0013.10,0005.77,0004.81
2022-09-01 14:56:00,,0829.6,5.00,0.00,30.3,29.0,00.0,39.0,32.1,20.1,0000.0,0013.23,0005.82,0004.81
2022-09-01 14:57:00,,0829.6,5.01,0.00,30.3,29.1,00.0,39.0,32.1,20.3,0000.0,0013.74,0005.85,0004.82
2022-09-01 14:58:00,,0829.6,5.00,0.00,30.3,29.2,00.0,39.0,32.1,20.3,0000.0,0015.09,0005.87,0004.82
2022-09-01 14:59:00,,0829.5,5.00,0.00,30.3,29.2,00.0,39.1,32.2,20.2,0000.0,0016.22,0005.84,0004.81
